Theta_e
293 289 287 286 289 289 289 290 289 289 288 287 286 284 284 284 286 287 290 292 290 290 288 289 289 288 290 290 292 293 292 290 290 291 293 295 296 297 296 295 295 295 298 299 300 300 301 303 307 308 308 309 310 311 311 311 310 311 311 309 309 308 309 311 311 310 310 309 308 309 315 317 315 313 312 313 314 315 318 318 318 319 321 323 321 320
291 287 287 289 289 289 291 288 287 288 287 289 285 284 285 284 286 288 290 292 291 290 284 285 286 288 289 291 292 293 290 292 293 293 293 294 295 296 295 294 294 297 295 296 298 299 299 301 303 305 308 307 309 309 309 310 310 309 309 309 310 307 309 311 312 312 310 310 311 314 314 313 312 311 311 312 309 311 314 316 317 317 319 321 321 318
287 286 288 290 291 289 288 288 288 288 287 285 286 283 284 286 286 289 290 290 291 290 288 285 287 291 292 292 293 292 294 295 295 294 295 294 295 295 295 294 294 293 296 295 295 296 299 299 302 305 307 308 311 309 309 310 308 308 308 309 308 308 309 310 310 311 311 307 305 307 304 310 306 306 308 306 303 304 310 312 315 316 317 319 319 319
286 286 290 291 289 290 288 288 288 287 285 284 283 285 283 282 287 285 286 288 292 290 287 286 288 291 293 292 293 295 295 295 295 293 294 294 295 296 296 293 294 293 295 296 296 296 297 298 301 302 305 307 307 306 306 307 308 308 307 307 307 308 308 309 309 309 306 305 302 301 303 302 303 302 303 305 304 303 306 309 311 314 316 317 318 318
285 289 291 289 290 290 289 288 288 287 287 284 282 281 282 287 288 284 287 288 286 288 288 286 285 285 282 286 288 288 290 292 294 293 294 294 295 296 294 294 292 295 295 295 295 294 297 299 302 304 305 304 306 306 307 307 308 309 308 308 307 307 307 307 307 306 304 304 301 301 300 300 302 303 303 304 304 305 305 308 310 313 313 316 316 316
288 288 291 290 289 288 289 288 286 286 284 284 284 285 286 286 288 289 285 285 279 279 282 286 279 276 278 283 285 289 289 291 288 289 293 295 294 293 294 294 293 294 294 295 295 296 298 300 299 300 301 304 305 306 307 307 308 307 307 306 306 306 306 306 305 305 305 305 303 301 301 301 303 304 304 305 306 303 304 307 307 308 311 313 314 315
287 292 292 291 289 287 287 286 288 287 282 284 286 288 286 287 287 285 287 283 279 279 285 284 279 278 279 284 287 288 288 290 289 289 294 294 294 292 293 294 293 294 295 294 296 297 298 298 298 299 301 303 305 306 304 304 306 305 305 305 305 306 305 305 304 305 305 305 303 303 304 304 306 307 306 306 306 305 305 305 305 307 308 311 313 313
292 292 290 289 289 287 286 288 289 286 283 283 285 288 287 288 287 286 283 283 279 279 282 285 280 278 281 285 287 289 287 288 289 291 292 295 292 292 293 294 293 294 294 295 296 297 298 299 301 302 302 303 305 303 302 303 304 305 305 305 305 304 304 304 304 304 306 306 304 303 304 304 306 307 307 306 305 306 305 304 304 304 306 308 311 312
292 289 289 288 284 284 286 284 289 286 284 284 288 288 287 288 287 283 282 282 283 281 280 278 284 282 278 282 285 285 286 287 289 291 292 292 290 290 291 293 293 292 294 296 297 298 299 299 300 301 301 302 301 302 303 304 304 304 303 303 302 303 302 302 303 304 304 306 306 305 305 304 305 306 306 305 304 304 304 304 304 303 304 305 308 310
292 291 291 290 287 286 286 289 288 289 290 291 289 288 288 286 284 282 280 286 278 278 276 280 283 277 280 280 283 283 284 286 289 291 291 291 292 291 291 291 291 294 295 295 298 297 298 298 298 299 300 300 302 300 300 301 300 301 300 301 302 302 302 302 302 303 303 304 303 304 304 304 304 305 304 304 303 303 303 303 303 303 302 303 304 307
292 294 294 291 289 288 288 290 288 289 291 291 288 289 285 282 281 279 279 277 278 275 275 280 284 280 277 279 282 285 286 286 288 288 289 289 288 287 291 292 295 297 296 296 295 295 295 295 296 297 299 299 299 298 299 300 300 300 301 301 302 302 302 302 302 302 303 303 303 304 304 304 304 306 305 303 303 303 302 303 303 302 302 302 303 304
290 291 292 291 293 290 289 290 289 288 288 290 285 280 282 282 279 277 273 275 274 271 274 277 282 281 275 276 282 286 286 286 289 289 290 288 288 287 293 295 297 296 296 295 295 297 296 297 297 296 297 297 297 298 298 297 297 299 300 301 301 300 301 301 302 301 302 303 303 303 303 304 305 306 305 304 303 303 302 302 302 302 302 301 301 301
288 288 288 291 293 292 288 289 289 286 286 286 283 284 279 273 271 274 270 275 272 273 280 279 281 281 282 283 288 286 288 288 287 290 290 289 289 290 294 297 295 294 295 295 296 295 295 295 296 296 296 296 296 299 298 299 299 299 299 300 301 300 300 300 301 301 301 301 302 303 303 304 305 306 306 305 305 304 302 302 302 301 300 300 299 299
284 281 287 289 291 293 291 289 285 286 286 284 286 279 276 271 271 267 264 266 269 275 278 281 283 281 281 284 289 292 294 291 289 288 290 289 289 291 294 295 294 294 293 293 293 293 293 294 295 295 295 295 296 296 298 298 298 299 300 299 300 301 299 299 300 300 301 301 302 302 303 304 304 304 305 305 305 304 303 302 302 301 301 301 301 301
276 279 286 288 287 290 291 290 292 288 288 287 283 285 281 273 269 267 266 272 273 273 276 278 278 277 279 284 288 289 290 290 290 289 288 288 289 291 290 293 293 293 292 290 291 293 295 295 294 296 296 295 296 297 297 298 298 298 299 299 299 299 298 298 299 299 300 301 301 301 303 303 304 305 305 305 306 305 303 302 302 301 301 301 301 301
283 280 282 289 288 291 292 290 287 286 287 284 282 282 278 279 276 273 269 270 270 272 274 276 279 279 284 285 286 288 288 289 290 290 289 291 290 292 293 293 295 295 294 292 292 294 294 294 294 294 294 295 296 296 297 298 298 298 300 299 299 300 299 298 298 299 300 300 301 300 301 302 303 303 304 305 305 305 304 303 302 301 301 301 301 301
281 280 285 288 288 290 291 289 290 288 284 284 285 281 282 282 279 272 273 277 273 271 275 272 279 282 281 284 290 288 288 290 289 289 289 291 291 291 292 291 293 295 293 292 294 295 295 294 293 294 295 295 295 295 298 299 299 300 299 298 298 298 297 297 298 299 299 300 299 299 300 301 301 302 303 304 304 304 304 303 302 301 300 300 300 300
283 278 284 286 287 289 289 289 289 288 285 286 281 283 284 286 282 278 273 267 268 271 273 274 277 279 277 279 281 284 287 289 287 289 291 293 291 289 290 291 295 295 295 294 293 294 294 294 294 295 295 295 296 297 297 298 299 299 300 299 299 298 298 297 297 297 298 298 298 299 299 300 301 302 302 303 303 304 303 303 302 301 300 299 299 299
285 280 283 285 286 288 287 292 291 290 289 284 281 285 286 279 278 279 273 271 267 266 269 273 274 276 279 281 281 284 286 288 289 291 291 292 292 291 291 290 292 292 292 293 295 295 295 295 295 295 295 295 295 295 296 297 298 298 297 298 299 299 299 299 298 298 298 298 299 299 299 299 300 301 301 301 302 303 303 302 302 301 300 299 298 297
286 280 278 286 286 288 287 288 284 285 291 289 289 288 285 282 274 277 279 272 274 268 266 271 271 279 280 280 282 287 286 288 290 287 289 291 291 293 291 291 292 293 294 295 295 296 296 294 293 293 293 294 295 295 296 296 296 297 298 297 298 298 297 297 297 297 297 297 298 298 298 298 299 300 300 299 300 302 302 303 302 301 300 299 297 296
284 283 275 282 284 286 284 286 285 288 287 286 286 283 286 283 284 280 280 275 275 264 264 268 272 276 278 283 285 288 287 287 288 289 289 290 291 290 290 292 292 293 294 294 296 296 294 293 291 290 290 292 291 291 292 295 297 298 297 297 298 298 298 297 297 296 297 297 297 297 297 297 298 299 299 298 298 299 301 302 301 301 301 298 295 295
283 281 278 281 282 282 283 283 287 290 292 290 289 286 288 283 279 276 277 279 273 274 272 266 274 279 280 285 288 285 286 287 287 288 289 288 289 290 291 291 290 292 293 294 294 292 291 291 290 289 288 287 288 290 290 294 294 294 296 298 298 297 298 298 297 296 296 296 297 296 297 297 297 298 298 298 299 297 298 300 300 300 298 296 295 293
287 281 281 278 283 286 285 288 286 288 288 287 287 285 288 287 283 276 274 275 275 277 274 272 269 281 285 286 286 286 286 287 287 287 289 289 289 289 291 291 291 292 293 293 292 291 291 290 290 289 289 290 290 291 289 291 294 296 296 296 296 297 298 298 298 296 296 295 295 296 296 296 295 296 296 297 298 297 297 298 298 297 296 296 294 293
291 278 278 275 279 279 284 284 286 285 288 287 286 283 285 285 282 280 274 275 281 274 275 273 271 281 288 287 285 284 283 285 286 285 289 293 294 292 292 293 293 293 292 290 288 288 289 287 286 287 290 292 293 291 293 293 294 295 295 295 294 295 296 296 296 295 295 294 294 294 293 293 293 293 294 295 296 296 297 298 297 295 295 295 293 292
283 280 283 272 270 277 278 283 285 285 286 281 281 284 285 284 283 281 279 276 278 278 279 277 276 282 284 286 286 286 285 292 291 291 290 294 295 296 294 293 292 291 292 293 292 290 290 289 290 293 292 292 292 291 291 292 293 293 294 293 294 296 294 294 292 293 293 293 292 291 291 291 291 292 293 294 295 295 296 297 297 295 295 294 293 292
289 282 282 276 276 274 271 275 279 282 284 284 278 283 287 288 286 285 281 278 278 278 279 278 281 285 289 286 289 288 285 290 288 287 288 291 293 293 294 294 293 291 292 291 291 290 292 292 290 290 291 291 290 290 290 291 292 292 293 294 293 294 293 292 290 292 293 292 291 291 290 291 290 292 292 293 294 295 296 297 296 296 294 294 294 292
281 282 285 285 283 280 282 284 284 286 283 283 284 285 286 288 289 289 283 280 281 279 275 284 286 285 285 286 285 290 285 289 290 288 289 290 290 290 290 291 292 292 292 292 292 292 290 291 293 293 291 290 289 288 289 290 291 291 292 293 293 293 292 291 290 291 292 291 291 291 291 291 291 292 292 292 293 294 295 295 295 295 295 293 293 292
280 283 285 285 286 287 287 285 285 290 287 287 286 284 287 287 287 286 285 283 287 277 280 285 285 283 287 289 288 289 288 286 287 288 288 288 290 292 292 290 292 292 291 289 289 291 291 292 292 292 293 292 292 290 289 289 290 291 291 293 293 291 290 291 289 291 291 290 290 291 292 291 290 291 291 292 292 293 293 294 294 294 294 293 292 292
285 284 286 284 285 287 285 283 286 288 288 288 288 286 285 287 286 285 286 288 286 283 282 287 285 284 288 290 291 291 291 293 292 290 290 291 290 288 290 293 292 291 291 291 292 292 292 292 292 292 292 292 289 290 290 289 289 288 289 290 291 289 290 288 289 290 290 290 290 292 292 290 290 290 290 291 291 291 292 292 292 293 293 292 292 292
287 283 284 285 285 286 285 283 286 287 286 285 286 287 288 287 286 287 288 289 288 285 288 288 288 286 289 291 290 292 292 292 292 289 290 292 293 291 290 290 290 290 290 291 291 292 292 292 290 290 290 291 291 291 291 292 292 291 290 291 289 289 289 287 289 290 290 290 291 292 291 290 289 290 289 290 291 291 291 291 291 291 291 291 291 291
290 284 289 283 283 284 286 284 284 285 285 284 285 286 287 288 288 288 288 288 288 287 287 287 286 286 291 288 289 290 289 289 291 291 293 293 291 290 289 290 290 289 290 291 292 292 291 290 290 290 291 291 291 291 291 292 291 290 289 289 289 289 288 287 289 289 290 291 292 292 290 289 289 289 289 290 291 291 290 290 290 290 289 290 291 290
289 284 285 284 282 283 285 284 282 282 281 283 284 285 285 285 284 286 285 287 286 285 287 286 285 286 290 289 294 289 289 291 292 291 291 292 291 289 289 289 289 289 290 290 290 289 290 290 290 290 290 290 290 290 290 291 291 289 290 291 289 289 287 286 288 289 290 291 291 291 290 289 288 288 289 289 290 290 290 289 289 289 289 289 289 289
288 286 284 283 283 283 287 283 281 282 282 282 283 286 287 286 287 288 289 290 290 290 286 284 286 292 292 290 289 288 290 290 289 290 289 289 288 290 291 290 290 289 290 289 289 288 288 289 289 289 289 288 290 290 289 288 288 290 290 290 290 287 286 287 287 289 289 290 290 290 290 289 288 288 289 289 289 289 288 288 288 288 288 288 289 289
288 288 287 286 284 284 284 280 284 282 277 280 291 293 291 288 287 285 286 288 290 290 289 292 293 294 290 289 290 289 289 289 290 290 290 291 290 290 289 288 288 289 288 288 288 287 287 288 288 288 287 287 288 287 287 286 288 289 289 288 288 287 287 287 288 287 289 289 289 289 289 288 288 288 289 289 288 288 288 287 288 288 288 288 288 287
288 288 287 285 285 284 281 283 281 277 279 291 294 293 293 293 291 289 290 290 291 291 292 291 292 292 291 291 292 291 290 290 290 290 290 289 289 290 289 288 288 287 287 287 286 286 286 287 287 287 287 288 288 288 288 289 289 288 288 288 288 288 287 287 287 288 288 288 289 288 288 288 288 288 288 288 288 287 287 288 288 288 288 288 287 287
288 288 285 284 284 283 279 281 277 278 287 289 290 291 291 291 291 289 287 290 291 291 292 292 294 295 294 291 291 290 290 289 287 286 286 288 288 289 286 288 289 287 287 287 286 286 287 287 287 287 287 286 286 286 285 287 287 287 287 287 287 287 287 286 287 287 287 288 288 288 288 288 288 288 288 287 287 287 287 287 288 288 288 287 287 287
289 289 287 285 287 283 284 283 282 286 285 286 287 287 289 287 287 288 285 288 291 292 292 292 293 294 294 291 289 289 288 287 286 286 286 287 288 287 288 288 289 287 286 285 285 286 286 285 285 286 285 285 285 285 286 286 286 286 286 286 287 286 286 286 286 287 287 287 288 288 288 288 288 288 288 287 287 287 287 287 287 287 288 287 287 287
290 288 287 286 285 287 284 282 282 282 279 285 291 288 292 292 293 293 290 287 288 291 294 293 292 293 291 285 285 287 288 289 285 285 287 285 287 287 286 286 285 285 285 285 285 284 285 285 285 284 284 285 284 284 284 285 285 285 285 286 286 286 286 285 286 286 287 287 288 288 288 288 288 288 288 287 287 287 287 287 287 287 287 287 287 287
290 290 288 287 285 285 283 281 281 279 283 290 288 289 291 291 293 289 287 285 290 287 286 289 292 290 288 287 285 287 289 287 287 287 288 285 285 285 286 286 286 286 286 286 285 285 284 285 284 284 283 284 285 285 284 284 284 284 284 285 285 285 285 286 286 286 286 287 287 287 287 287 287 287 287 287 287 287 287 287 287 287 287 287 287 287
287 287 287 285 284 285 284 282 280 285 284 286 284 284 286 289 293 290 281 282 290 284 285 288 290 288 284 284 286 289 290 289 288 289 289 287 287 286 286 287 286 286 286 284 284 284 283 283 283 284 284 284 284 284 284 284 284 284 284 285 284 284 285 286 286 286 286 286 286 286 287 287 287 287 287 287 287 287 287 287 287 286 286 286 286 286
285 285 286 283 285 285 285 283 285 285 287 285 284 283 285 289 292 284 280 287 286 285 284 287 287 286 285 284 285 286 285 286 289 289 286 285 287 287 286 286 286 285 284 283 284 284 284 284 283 283 283 283 283 283 283 283 283 283 284 284 283 284 285 285 285 285 285 285 286 286 286 286 286 287 287 287 287 287 287 286 286 285 285 285 285 285
285 286 285 286 284 284 285 283 283 286 287 286 285 286 288 290 282 283 287 284 286 284 283 285 286 283 283 285 285 285 285 283 284 285 286 285 286 285 284 284 285 285 284 283 283 282 282 282 283 284 284 284 284 283 283 282 282 283 283 283 283 284 284 284 284 284 284 284 285 285 285 285 286 286 286 287 286 286 286 285 285 285 285 284 284 284
285 284 281 283 285 285 284 282 282 278 288 289 290 288 289 287 287 288 286 284 283 285 285 283 285 286 285 284 283 284 283 284 286 286 285 284 284 286 285 285 284 284 284 284 284 284 283 283 284 283 283 283 281 281 280 279 280 282 282 282 283 284 284 283 283 283 283 283 283 284 284 285 285 285 285 285 285 285 285 284 283 283 283 282 283 283
289 285 284 285 288 282 282 280 281 287 288 289 293 288 288 285 287 287 289 285 283 285 285 286 285 285 285 286 284 284 284 284 283 283 284 284 283 282 283 282 282 282 282 283 282 282 281 282 282 282 283 283 283 283 283 281 281 282 282 282 284 283 283 282 282 282 281 282 283 283 283 283 283 284 284 284 284 284 284 283 282 282 282 282 282 282
289 287 286 285 287 286 283 285 287 283 284 286 285 285 286 287 287 285 288 289 287 287 285 287 287 285 285 285 285 284 283 283 283 282 282 282 283 282 282 282 282 283 283 282 282 282 280 281 281 281 281 282 282 282 282 280 280 281 281 283 283 282 282 281 281 281 281 281 281 282 282 282 282 282 282 282 282 283 283 282 281 281 280 281 281 281
286 286 287 287 284 285 286 285 286 284 286 285 287 286 287 285 284 285 288 288 287 287 286 287 286 285 284 284 284 282 282 282 282 281 281 281 281 282 282 281 281 281 281 280 280 281 280 279 278 278 279 281 281 281 280 280 278 279 281 282 282 281 281 280 279 280 281 281 281 281 280 280 281 281 280 280 281 282 283 283 282 282 281 281 281 282
286 287 287 285 286 286 283 286 285 285 285 286 287 286 286 285 285 285 287 288 287 286 285 285 285 285 284 283 284 282 281 280 281 281 281 280 280 280 280 280 279 279 279 279 280 279 279 277 278 279 279 279 280 280 281 280 280 280 281 280 281 280 279 278 279 280 280 280 280 280 279 279 281 281 280 279 279 280 280 280 281 281 281 280 280 281
286 287 286 285 287 286 284 285 284 285 285 286 287 287 287 287 286 286 286 286 285 285 284 284 284 283 282 282 282 283 281 280 280 280 280 280 279 279 279 278 278 277 278 278 277 277 275 276 276 277 277 278 279 280 280 280 280 280 279 279 279 278 278 278 279 280 279 279 279 279 279 279 280 280 280 280 279 280 280 279 280 281 281 281 281 281
286 288 284 286 284 284 285 285 284 286 286 286 285 285 286 286 285 284 284 284 284 284 283 282 282 282 281 281 281 281 279 278 278 279 279 280 278 277 276 276 276 276 277 277 277 277 276 275 275 276 276 277 278 278 278 278 279 280 279 279 279 278 277 278 279 279 278 279 279 279 279 279 278 279 279 279 278 279 280 281 281 281 282 283 283 283
286 284 284 285 281 281 282 283 285 283 282 285 284 285 285 284 283 282 282 282 283 283 282 280 277 276 275 275 276 277 276 276 276 278 278 278 276 275 274 274 274 275 275 276 276 274 274 274 274 274 275 276 277 277 277 277 278 279 279 279 279 278 277 278 278 278 279 279 279 279 279 279 278 277 278 278 278 279 279 278 281 282 282 282 283 284
285 285 284 283 284 283 285 286 287 286 286 287 285 284 283 283 282 280 279 279 280 281 282 280 277 275 273 273 273 273 274 275 275 276 275 274 273 273 273 272 272 273 273 274 273 272 272 273 274 274 274 275 276 276 276 276 276 277 278 278 278 278 277 277 277 278 279 279 279 280 280 279 278 278 276 276 276 277 278 279 280 283 284 284 283 284
Wind_Speed
1 5 7 7 9 8 4 7 4 3 7 5 4 5 3 4 1 2 1 1 0 0 5 7 7 6 10 10 12 11 8 6 7 10 12 12 13 13 10 9 9 9 14 4 4 5 6 7 7 5 5 6 5 6 8 8 8 9 10 9 10 7 6 8 8 7 7 6 5 3 8 9 6 6 5 6 5 6 6 6 5 6 6 7 10 11
4 5 7 7 7 8 8 4 6 6 3 7 6 5 1 1 2 1 0 1 2 2 3 1 2 9 12 12 12 10 6 13 14 13 13 15 14 12 9 8 9 12 4 3 4 4 5 6 5 5 6 6 9 8 8 11 11 9 8 11 10 7 8 9 9 8 7 6 6 7 7 6 5 6 7 7 5 5 4 4 5 5 5 6 9 10
2 6 8 7 5 3 3 5 3 7 5 2 5 3 4 1 2 2 1 2 1 2 7 1 4 11 11 11 12 11 14 12 12 9 11 10 14 13 10 8 7 5 9 5 5 4 5 4 5 6 6 8 10 9 11 9 8 9 10 10 9 9 9 8 8 8 8 4 2 4 3 6 4 1 1 2 3 3 5 5 5 5 5 6 7 9
2 5 9 3 4 7 3 4 7 6 6 6 4 2 4 2 2 1 2 1 1 1 2 1 6 13 10 7 12 14 10 11 9 5 10 10 13 15 14 5 6 7 9 9 8 7 3 4 5 5 7 8 6 7 6 8 10 8 9 8 9 9 9 8 8 7 3 3 3 2 3 3 3 3 1 2 1 3 4 7 5 5 6 6 7 8
6 1 0 4 3 6 6 2 7 5 2 2 3 3 2 1 1 3 1 1 1 1 2 4 4 10 4 6 6 4 3 5 9 5 8 11 12 11 5 2 4 8 7 9 7 5 4 5 8 10 7 5 8 9 10 10 10 9 11 10 10 9 9 6 5 5 5 5 4 5 5 3 3 3 2 2 4 6 5 4 7 8 5 6 7 8
2 3 2 5 3 3 5 2 3 8 1 1 3 4 3 4 5 0 2 1 6 2 2 2 5 4 4 6 8 10 6 5 3 5 9 11 7 5 7 7 5 6 5 7 6 5 6 6 4 4 5 8 8 9 9 8 8 7 8 8 7 6 6 7 6 6 6 6 7 6 6 5 4 5 6 9 9 5 6 6 1 2 6 6 6 7
3 2 2 5 4 3 3 2 3 4 5 2 3 3 4 7 5 3 0 2 1 1 1 3 2 9 6 6 7 9 8 10 9 7 12 11 8 1 5 6 5 6 5 3 3 2 4 5 5 5 7 8 9 9 5 5 6 6 6 7 7 7 6 6 6 7 7 7 7 8 9 8 9 8 6 3 1 5 4 3 5 5 4 5 7 8
1 1 6 4 5 3 3 1 3 7 7 2 1 4 6 6 4 3 4 2 2 2 4 2 3 3 10 9 8 7 6 11 10 12 12 16 6 5 5 6 6 2 3 4 5 5 5 6 9 11 10 8 10 5 5 6 5 8 8 8 8 6 6 5 6 7 8 8 7 7 8 8 9 10 9 7 4 4 4 5 6 5 5 6 6 8
2 3 3 3 2 3 5 3 2 4 4 2 2 7 4 5 4 5 4 3 1 2 8 4 0 1 6 10 4 1 3 7 10 12 13 7 4 5 6 7 7 4 4 5 5 7 7 8 8 6 6 7 4 6 8 9 7 6 4 4 4 6 5 5 6 7 7 7 8 8 8 8 7 5 4 4 4 5 6 7 6 6 6 6 6 8
2 2 4 7 6 5 3 1 2 5 4 1 5 6 6 7 6 4 3 2 1 1 7 2 3 2 8 6 4 3 1 7 12 11 7 7 6 6 6 6 4 3 3 5 4 2 4 5 4 4 2 4 6 3 3 3 3 4 4 5 6 6 6 6 7 8 8 8 7 8 8 9 7 4 3 4 5 5 5 8 7 7 6 6 6 7
1 3 4 3 3 3 4 1 2 0 2 7 5 7 6 8 4 3 7 2 3 3 7 8 7 2 6 5 6 4 5 5 6 7 6 5 4 4 4 3 1 1 4 4 3 2 2 2 2 2 5 3 2 3 4 4 4 4 5 6 8 8 7 8 9 9 10 9 8 9 9 9 9 8 7 6 6 6 6 8 9 8 8 7 7 7
2 1 1 1 2 2 3 4 5 2 3 5 2 3 5 2 7 4 4 5 1 6 5 2 1 1 5 5 7 9 6 4 6 7 6 6 4 3 1 1 1 1 1 2 3 1 0 1 1 1 4 3 3 3 4 4 4 5 5 6 7 6 8 7 8 9 9 9 9 8 8 10 10 9 8 10 10 9 10 9 9 7 6 7 7 6
2 2 1 4 4 7 3 8 4 4 2 5 6 7 6 2 4 3 3 1 5 6 1 3 1 2 12 5 6 6 9 7 7 7 6 2 2 3 1 3 3 2 1 1 2 1 1 4 4 5 4 2 4 5 5 5 5 5 6 8 9 9 8 9 9 10 10 9 10 10 10 10 9 10 10 10 10 9 9 8 8 8 9 8 7 8
3 2 2 3 3 3 5 9 2 1 1 5 7 7 5 1 1 3 4 2 5 6 4 2 0 5 3 6 12 13 13 5 4 5 7 5 4 2 1 5 3 3 2 2 1 2 3 4 5 4 3 4 4 5 6 5 6 6 6 7 9 9 8 8 8 10 10 11 11 10 10 10 9 10 10 10 10 9 8 8 9 9 9 9 11 9
3 4 6 6 2 3 4 6 12 8 10 8 2 10 9 8 5 4 3 5 6 4 2 5 1 7 3 2 0 7 9 9 7 6 5 5 5 4 1 2 2 2 4 4 4 4 5 6 5 5 4 5 5 5 5 5 5 5 6 7 8 7 7 8 10 9 11 11 10 10 10 9 8 9 9 8 8 9 9 8 9 9 8 9 9 9
8 4 5 3 1 6 8 2 3 5 4 0 3 6 5 7 5 1 5 2 1 1 1 1 6 5 5 3 8 6 8 8 5 5 4 7 4 1 1 4 5 5 5 4 5 5 7 6 5 5 5 6 5 6 5 6 5 6 7 7 8 9 9 10 10 10 11 11 10 9 10 11 10 8 8 7 7 8 9 9 9 9 9 9 8 8
3 5 2 5 5 4 4 2 1 3 6 4 5 5 6 2 7 5 2 0 1 4 8 2 8 7 8 6 10 7 2 8 6 6 5 8 3 3 3 3 5 5 5 5 6 7 7 5 6 7 7 6 6 5 8 8 8 8 7 7 7 7 6 9 10 11 10 10 9 10 10 9 9 9 10 9 9 9 8 9 9 9 9 9 8 8
11 5 1 3 4 1 0 1 2 3 3 7 3 8 1 2 4 4 4 2 1 4 8 2 9 6 3 9 4 2 2 5 5 7 7 8 6 3 4 5 7 8 8 6 5 6 6 6 6 6 7 7 7 7 7 8 7 7 7 8 8 8 10 9 10 10 10 10 10 10 10 10 10 10 9 9 8 8 8 9 8 8 8 9 9 8
6 1 1 1 0 5 2 0 1 1 1 4 3 3 6 3 1 1 4 3 1 2 6 4 3 7 8 9 3 3 2 5 6 8 7 9 9 7 6 3 6 6 5 6 8 8 8 7 7 7 8 7 6 6 6 5 6 5 6 6 8 10 10 10 9 9 8 9 8 8 10 10 10 9 8 8 8 7 9 10 10 10 10 8 9 9
2 5 2 1 2 1 1 4 9 4 1 1 2 3 1 3 2 5 7 4 6 5 1 8 2 9 5 6 8 9 8 9 7 5 7 10 9 9 5 1 6 7 7 7 7 8 7 6 6 6 6 6 6 6 6 5 4 6 7 7 8 7 6 6 8 8 10 9 9 8 7 7 8 9 8 8 8 9 10 11 11 10 10 11 8 9
4 1 5 1 3 2 4 5 9 11 9 2 2 4 1 0 1 4 1 3 4 4 5 3 7 6 7 6 8 10 7 7 8 10 9 9 8 6 6 6 7 8 7 7 7 7 6 5 4 4 4 5 5 5 4 5 7 7 6 8 8 10 9 9 9 8 9 8 9 9 10 9 9 10 8 8 9 10 10 10 10 10 10 7 10 9
3 2 7 2 1 5 7 2 5 11 13 13 14 13 13 9 4 4 7 2 1 3 5 3 10 5 4 3 7 5 7 6 7 8 6 5 7 7 6 5 4 6 8 6 6 3 3 4 4 3 3 3 4 5 5 6 5 5 7 8 7 7 9 9 9 9 8 8 8 10 10 10 8 9 8 10 9 10 9 9 9 9 7 10 9 9
5 3 9 5 9 10 3 1 2 5 1 1 2 6 6 4 5 5 6 5 2 3 4 3 0 12 5 6 4 5 4 5 5 3 3 4 4 4 5 5 4 5 5 3 3 3 4 3 2 3 5 6 5 5 5 6 7 7 6 6 6 8 11 8 8 7 7 8 9 10 9 8 8 8 9 11 10 10 9 8 8 7 9 9 8 8
6 4 4 1 1 3 2 4 1 1 3 3 3 1 5 7 6 6 4 6 8 2 2 1 2 6 0 1 4 3 4 1 3 4 2 1 2 4 4 3 1 1 2 3 3 3 3 4 3 4 6 6 5 5 7 7 7 6 5 6 5 9 10 6 6 6 7 7 9 8 8 9 8 8 9 11 10 10 9 8 8 7 9 9 7 9
5 4 8 2 2 2 5 3 2 2 1 3 3 3 4 3 3 2 5 2 2 8 8 7 11 11 2 3 4 2 1 1 2 1 3 2 1 2 3 4 4 3 4 5 4 4 5 5 5 6 5 5 5 6 6 6 6 5 6 4 6 8 5 5 4 5 7 7 9 8 8 9 8 10 11 11 9 10 9 9 8 7 9 8 9 9
8 6 10 8 12 11 8 10 15 12 9 2 2 6 9 11 8 6 6 3 6 6 10 7 12 4 0 3 3 4 3 2 1 4 3 1 1 1 1 1 1 3 2 4 5 4 5 5 5 6 7 6 5 5 5 6 5 5 6 8 5 7 5 5 4 6 7 7 8 9 9 10 9 11 11 10 10 10 10 9 9 9 8 9 10 10
3 2 8 12 15 15 15 9 3 12 4 7 8 11 8 9 12 11 4 6 14 5 7 13 16 10 7 6 2 6 1 3 4 1 3 1 3 4 3 3 3 2 3 5 5 5 6 7 8 7 5 4 5 5 5 5 6 6 6 9 7 6 6 5 5 6 7 7 8 9 10 10 11 10 10 10 10 9 8 9 9 10 10 8 10 11
3 5 9 12 15 15 13 7 9 17 15 16 13 9 13 12 12 13 12 15 9 4 12 11 7 8 18 13 10 11 7 5 6 6 4 3 3 2 4 5 8 8 6 4 5 5 6 6 6 7 7 7 7 6 5 4 6 6 6 9 8 5 5 5 5 7 7 7 8 10 12 10 8 8 9 8 8 9 9 9 9 10 9 9 11 12
6 8 8 7 12 14 7 3 8 9 12 13 15 14 13 16 13 16 18 20 9 11 16 16 9 12 17 16 13 15 11 10 8 7 4 5 4 4 4 6 6 6 6 7 7 7 6 7 6 7 8 7 7 7 7 7 6 4 6 7 8 6 6 5 6 7 7 7 10 12 10 7 7 6 7 8 8 9 9 9 9 9 9 10 11 10
4 5 5 7 12 12 9 7 9 13 8 6 11 15 17 18 19 22 22 21 16 12 15 19 15 16 17 15 9 13 8 9 8 3 2 1 5 5 4 4 5 5 6 6 6 5 5 5 5 6 6 7 8 8 8 8 8 7 6 8 6 5 5 4 7 7 8 9 12 11 8 7 6 7 7 8 10 10 9 9 9 9 10 11 11 11
6 6 9 5 6 9 12 7 6 10 9 9 10 12 15 18 21 23 20 17 13 12 12 12 13 17 14 3 4 7 5 4 2 2 6 6 6 2 3 1 2 4 4 5 5 6 5 5 5 6 6 7 7 7 7 7 7 7 7 6 7 7 5 4 6 6 8 11 11 9 6 6 7 6 9 10 9 9 9 10 9 9 10 11 11 12
5 4 2 4 5 6 7 8 10 6 5 7 10 12 13 16 15 10 11 8 8 13 16 14 14 18 9 7 12 5 6 7 8 7 6 6 1 3 3 1 3 4 4 4 5 5 6 6 6 7 7 7 7 6 6 7 8 7 7 7 7 6 4 4 6 7 9 10 8 7 7 7 6 7 9 8 10 10 9 8 9 10 11 11 11 12
8 6 5 5 8 9 9 5 8 7 3 7 12 18 21 9 11 10 11 13 17 18 13 11 18 17 10 7 5 4 8 7 5 4 4 3 4 6 6 4 3 3 3 4 4 5 5 5 5 6 7 5 6 8 7 6 7 8 8 8 8 5 4 5 6 7 8 8 7 8 8 6 7 8 8 10 9 7 7 8 10 11 11 13 12 9
8 11 9 7 10 7 8 8 8 8 12 15 16 14 11 17 15 10 13 18 16 10 12 15 17 14 5 7 11 7 8 5 5 1 1 5 7 6 4 4 2 1 1 1 2 3 4 5 6 6 5 6 6 5 6 5 6 9 8 8 7 6 5 5 6 6 8 7 8 8 6 6 7 9 10 8 8 7 8 9 13 12 11 10 9 11
10 10 8 4 7 10 5 9 6 14 15 14 1 9 18 17 15 21 20 16 15 14 11 12 14 16 10 8 8 5 5 5 6 6 4 4 4 5 5 3 1 1 1 2 3 3 4 4 6 6 6 6 8 9 10 10 9 10 11 9 9 7 6 6 6 7 6 8 8 6 6 7 7 9 9 8 7 8 10 12 12 11 10 10 11 12
13 13 5 3 3 5 3 8 13 15 6 1 2 6 2 7 9 10 10 13 14 17 19 21 24 21 11 7 4 5 11 9 6 4 3 1 2 4 4 2 1 1 2 3 4 5 5 5 6 7 8 5 5 6 5 6 8 9 10 8 7 8 7 6 7 8 7 8 8 7 7 7 8 9 8 8 8 9 12 11 11 11 10 10 9 9
8 6 7 8 5 14 10 13 15 3 7 4 5 6 8 8 7 11 13 15 14 13 16 19 22 18 11 5 5 7 9 7 6 1 0 0 1 1 1 1 0 0 1 3 2 4 4 5 5 6 5 5 4 5 6 6 6 7 8 9 8 7 7 7 7 8 8 9 9 8 8 7 8 9 9 8 9 11 11 11 11 11 8 9 10 11
4 11 5 11 7 10 12 11 6 7 14 17 15 0 5 7 10 9 11 11 4 13 17 19 19 15 9 4 7 9 8 7 5 2 2 1 0 1 1 1 1 1 1 2 3 3 4 4 4 4 4 6 5 4 5 5 7 7 7 8 7 7 7 5 7 7 7 8 8 9 8 8 8 9 9 8 10 11 10 10 8 9 8 11 11 12
0 2 0 11 3 7 9 11 11 12 15 12 4 6 8 7 11 6 6 14 7 9 7 8 12 8 8 9 8 10 9 8 8 6 4 1 1 1 0 1 1 1 1 1 2 4 5 6 6 5 4 3 6 8 5 5 5 6 8 7 8 7 8 8 8 7 8 9 8 8 9 8 8 9 9 10 11 10 11 10 10 9 7 9 9 11
3 3 4 6 8 7 8 11 13 6 8 4 4 3 3 4 11 9 11 12 8 8 6 7 11 9 5 5 11 12 12 11 7 7 4 3 2 2 2 1 3 4 4 4 3 2 3 4 4 5 6 6 6 6 7 7 7 8 8 10 8 9 10 10 10 10 9 10 10 9 9 8 8 9 9 10 10 9 10 8 7 7 8 9 9 9
7 4 8 13 12 13 14 9 3 6 3 3 3 3 2 6 11 12 18 10 4 6 4 6 6 6 6 7 6 8 1 2 6 7 5 3 3 2 0 1 0 0 3 4 5 6 6 6 4 5 4 4 5 5 5 5 7 9 8 9 9 9 9 9 10 10 10 10 10 10 9 8 7 10 10 9 10 9 8 7 8 8 8 9 8 9
8 7 3 8 14 13 12 14 12 4 5 7 0 8 6 8 6 15 2 1 11 7 4 7 8 4 4 5 4 5 7 4 5 5 5 3 2 0 1 3 4 4 2 2 4 3 4 4 4 7 8 6 8 7 7 7 9 8 8 8 8 8 7 8 9 9 10 11 11 11 10 10 9 7 9 8 7 8 9 7 7 8 8 7 7 10
12 9 8 10 5 4 5 9 7 12 4 7 10 2 2 9 7 5 7 3 3 6 8 4 6 5 5 7 5 8 7 6 5 4 3 1 2 1 2 3 4 4 5 5 5 3 4 7 9 9 7 6 5 4 3 3 5 7 7 8 9 9 8 9 9 9 9 10 11 11 11 10 9 9 7 7 7 8 10 7 6 7 7 7 8 9
5 9 5 6 7 8 9 9 8 4 5 5 10 11 6 3 3 9 12 7 2 5 4 6 2 3 4 9 9 7 6 6 3 2 1 1 0 2 2 2 2 2 3 2 2 5 4 6 6 9 10 9 9 8 7 6 9 9 9 10 8 8 8 8 8 8 9 9 9 10 10 9 9 9 8 8 8 7 8 8 7 7 7 7 8 8
6 9 4 9 5 9 5 4 0 1 1 1 1 0 3 4 5 3 6 11 11 6 4 6 6 4 4 7 8 8 7 4 4 3 3 1 0 1 3 4 4 4 5 5 7 6 5 7 9 9 11 9 8 7 7 6 8 10 11 11 10 10 10 10 10 9 10 10 9 9 9 9 8 9 8 8 7 7 8 7 6 7 6 7 7 8
3 1 0 5 1 2 2 0 0 2 2 2 4 3 6 4 2 3 8 9 3 5 5 7 6 7 5 5 10 4 5 6 5 3 2 1 1 0 1 3 5 5 6 6 6 8 6 6 5 5 8 11 8 7 5 5 5 8 10 10 10 10 9 9 9 10 10 10 9 9 9 10 9 8 8 8 7 7 7 8 7 7 7 7 8 8
1 0 1 3 2 6 4 2 1 1 3 3 6 5 6 4 2 2 5 5 7 6 5 4 6 6 6 5 7 8 6 4 6 4 4 3 3 2 1 1 3 4 5 5 6 6 7 5 6 7 8 10 9 8 8 6 6 6 7 8 9 10 9 9 9 9 8 8 9 8 7 8 8 8 8 6 6 7 7 7 6 7 7 7 7 8
3 3 3 1 3 4 1 5 1 2 2 3 2 5 5 6 7 6 6 6 7 7 6 5 6 7 4 7 6 10 7 4 4 3 2 3 2 1 1 0 0 1 1 1 4 5 4 5 5 6 8 9 10 9 9 8 8 7 7 6 7 7 8 9 9 9 10 10 9 8 8 8 9 9 8 8 7 7 7 7 7 8 9 9 9 9
2 5 3 4 4 2 4 3 3 4 2 2 4 4 3 6 9 8 7 8 8 10 10 10 8 7 7 6 5 7 8 5 5 3 4 3 4 5 6 7 7 7 7 8 7 6 6 5 6 6 7 8 8 9 10 10 11 10 10 9 8 8 9 10 10 10 10 10 8 9 8 7 7 7 7 8 7 7 7 8 8 8 9 9 9 10
4 7 1 5 5 6 9 10 11 9 5 5 3 3 5 4 8 9 7 8 7 9 8 11 9 8 8 7 6 6 7 5 6 6 6 5 5 5 6 7 7 7 7 7 6 6 7 6 5 6 7 7 6 7 8 9 10 11 10 10 10 10 11 11 11 10 10 9 8 8 8 8 7 7 6 6 7 8 9 8 9 9 9 9 10 14
6 5 6 6 7 8 4 9 8 3 4 4 8 6 6 3 6 10 8 8 6 5 6 9 9 8 8 8 7 7 7 6 6 6 5 5 5 5 5 6 6 6 6 5 6 6 8 8 9 9 10 10 8 6 7 8 9 10 10 10 11 12 13 11 10 10 9 8 8 9 9 8 8 7 7 6 6 5 6 9 8 8 14 14 11 11
Wind_Direction
104 124 172 187 202 195 175 175 178 172 150 112 92 102 170 160 275 287 291 292 62 90 235 227 244 257 267 261 269 273 297 289 259 253 249 253 255 251 241 230 232 238 240 269 247 226 214 213 211 196 170 175 176 180 180 179 185 182 179 169 189 183 173 168 171 177 168 167 168 186 195 202 190 192 190 194 195 191 181 170 172 173 180 174 167 168
64 127 224 215 210 183 192 160 97 76 40 127 123 116 147 117 154 244 224 335 333 145 298 19 291 263 256 268 267 273 294 269 254 253 253 250 248 254 244 237 227 238 291 287 260 246 224 218 196 172 173 166 174 202 182 190 191 181 175 185 182 172 184 189 184 180 185 190 193 182 194 179 173 183 190 200 204 195 183 175 174 183 183 184 171 170
50 178 232 222 206 123 88 133 117 132 116 44 134 148 113 221 251 314 285 328 307 78 267 19 321 276 267 257 260 250 246 250 242 228 245 251 264 262 255 235 239 265 263 273 264 261 236 212 187 178 186 195 196 184 192 193 175 183 186 191 181 184 185 193 188 175 190 181 161 157 164 170 164 256 241 189 179 183 187 194 190 192 192 189 183 175
100 285 238 227 122 111 59 112 107 72 62 106 94 94 216 235 118 267 286 336 356 136 272 4 322 284 280 268 257 255 241 256 268 245 245 229 244 251 252 233 226 241 254 259 248 243 240 201 187 181 194 196 184 182 191 187 190 189 193 190 188 190 190 188 192 185 162 134 101 72 109 107 115 177 120 102 125 194 197 205 198 211 202 194 184 181
187 227 354 113 128 120 130 100 122 135 140 2 119 127 130 162 198 149 239 322 326 7 51 341 289 298 317 338 323 303 310 288 282 287 265 255 239 255 302 281 206 226 227 245 261 255 203 187 198 198 192 170 189 194 194 190 192 193 195 193 190 187 190 189 176 169 138 112 84 70 53 62 67 52 114 140 219 211 206 201 202 213 206 203 188 183
281 266 126 88 74 71 108 96 163 132 82 336 231 168 187 160 141 259 359 54 17 355 326 31 341 307 297 298 254 273 331 301 296 340 279 261 255 270 268 256 237 247 234 227 242 231 211 206 202 194 180 190 203 203 204 196 197 189 189 186 186 184 183 180 172 164 153 161 157 145 144 162 189 200 194 206 207 202 207 214 185 222 217 210 194 190
197 5 133 160 117 88 92 143 212 116 162 116 255 156 152 134 117 113 46 66 325 224 316 58 114 273 313 281 289 282 276 280 310 314 284 293 281 322 255 256 244 237 269 275 251 211 183 209 193 208 202 202 204 215 184 193 197 196 185 185 184 186 183 173 169 167 165 169 174 181 185 186 194 205 219 218 210 191 201 176 203 214 220 216 197 194
95 57 76 67 86 89 106 133 219 136 113 217 240 125 116 110 121 141 97 118 218 258 297 31 119 217 303 285 233 271 295 285 292 275 268 256 289 288 278 275 268 252 232 233 221 210 212 198 192 201 205 200 212 188 178 194 195 196 191 181 185 181 177 175 165 175 180 183 182 186 195 198 203 207 209 185 184 173 172 196 209 207 213 216 208 192
147 177 130 104 74 95 173 210 178 126 119 221 191 134 151 138 141 116 92 117 7 29 288 331 249 288 244 269 301 315 279 289 274 263 253 275 292 283 287 280 271 253 228 203 205 208 204 200 213 214 207 215 193 185 194 198 200 196 180 169 163 175 172 177 173 177 191 192 190 195 200 214 223 220 212 169 169 179 181 199 206 207 210 213 215 199
357 161 214 145 130 186 231 263 210 136 78 242 137 91 85 77 71 95 105 88 346 50 267 247 175 223 277 265 329 350 221 255 253 262 288 285 279 279 273 278 288 274 233 225 220 232 216 216 220 224 227 193 212 206 199 202 175 177 161 168 171 185 176 177 181 184 190 193 186 198 207 215 217 206 193 180 190 195 189 205 207 207 206 209 212 205
241 314 173 92 177 194 139 33 155 193 131 127 83 69 24 38 31 27 65 86 45 280 253 217 199 145 291 268 223 152 215 207 292 301 282 284 306 284 274 277 295 173 204 198 212 269 270 263 230 219 216 220 205 193 184 192 186 175 174 177 186 190 179 180 185 184 192 193 194 202 204 209 211 203 193 195 204 195 197 212 210 208 207 202 210 201
14 359 86 289 88 112 99 83 16 45 81 120 97 123 53 344 12 29 346 38 130 270 263 306 231 60 209 293 281 241 272 235 229 253 269 302 298 285 337 69 261 249 212 160 141 99 328 276 233 202 230 217 212 189 200 199 182 181 183 181 191 190 185 185 186 189 196 194 201 205 203 209 210 201 200 204 207 199 203 209 212 210 207 209 208 208
54 97 280 328 196 131 105 82 357 13 6 79 87 66 126 246 33 285 19 265 216 216 277 334 239 1 249 218 268 282 263 271 221 219 232 209 271 280 196 154 197 240 278 248 142 137 232 218 223 228 231 193 200 206 204 200 192 191 189 189 191 200 187 188 187 193 196 196 202 202 207 211 208 208 203 207 211 201 203 202 208 204 210 204 206 210
268 288 352 291 0 223 138 129 156 80 217 111 144 143 110 136 135 242 274 240 305 290 263 321 141 254 266 278 238 246 257 231 240 240 248 226 200 258 207 175 206 238 244 262 280 248 247 244 243 240 224 210 214 212 206 200 194 197 198 197 200 205 186 187 191 196 198 205 204 204 207 209 205 212 207 208 209 205 203 198 204 207 210 209 210 203
118 303 256 140 240 181 186 175 176 167 168 205 106 155 178 150 159 206 193 205 219 210 282 289 69 232 128 242 225 229 255 282 272 259 248 255 255 306 304 217 172 245 257 252 253 242 244 256 246 247 234 221 214 208 207 204 205 194 206 200 207 203 194 190 197 197 204 208 207 207 209 209 206 212 211 211 208 205 202 202 205 206 210 216 213 208
207 202 265 244 282 148 177 230 112 89 44 311 153 72 92 223 138 142 210 156 218 324 349 212 215 191 171 271 287 248 288 292 281 286 309 288 287 115 92 181 194 214 229 239 247 258 259 253 265 263 257 239 227 209 198 202 200 202 212 207 209 208 196 195 197 204 205 209 207 206 208 211 210 213 214 214 208 212 204 204 203 208 209 215 216 213
45 252 314 315 46 166 172 126 184 142 184 222 113 208 211 165 103 87 50 43 103 38 257 156 300 279 301 313 269 305 321 283 314 302 304 281 233 167 196 203 232 232 240 240 231 235 247 258 252 244 247 245 237 226 206 201 198 203 204 205 214 215 205 202 205 206 206 208 206 211 211 210 212 211 213 214 211 210 209 208 205 205 210 210 211 211
154 229 311 104 210 330 185 148 93 30 151 100 186 235 192 131 112 133 212 353 60 201 267 100 236 292 25 286 320 348 173 259 288 274 266 257 267 262 218 197 208 220 224 235 248 249 245 246 246 248 247 238 231 226 222 206 197 201 203 204 210 211 211 210 206 208 206 206 210 211 212 214 213 214 216 215 214 206 208 212 209 205 205 208 208 207
124 116 312 334 100 288 349 135 8 352 47 144 196 200 114 243 231 297 90 241 150 261 267 289 267 268 195 247 333 352 174 238 253 251 252 264 270 270 277 215 237 245 257 256 242 239 244 234 234 236 241 245 243 240 236 223 187 192 208 211 210 217 216 210 208 208 212 208 211 210 212 211 214 217 216 217 214 206 209 210 209 205 205 201 202 207
140 156 281 333 128 308 8 107 202 190 18 57 68 91 120 104 179 137 198 174 124 235 59 288 30 256 192 220 193 233 217 217 239 277 263 260 261 264 285 210 237 233 223 230 235 232 229 231 229 233 241 251 247 241 233 221 190 197 208 210 220 229 225 221 214 207 214 210 212 215 213 217 216 216 214 210 209 212 214 213 210 210 206 204 194 202
180 168 213 285 302 92 188 201 212 154 159 154 135 203 193 21 230 113 55 131 175 172 182 256 300 271 263 212 178 211 219 223 215 230 248 252 268 276 258 224 211 228 228 225 226 222 225 238 254 253 252 267 280 269 252 233 214 203 196 214 216 218 220 220 216 207 217 205 215 215 214 212 211 217 213 214 212 216 215 214 214 213 209 194 202 192
125 178 179 133 40 227 241 254 178 185 187 179 176 196 184 134 154 163 256 40 106 127 234 148 256 259 265 179 198 197 227 226 228 221 237 274 256 250 251 247 210 232 248 235 231 228 259 258 265 286 295 274 276 275 254 241 237 215 211 216 215 218 227 219 217 211 212 209 212 215 216 215 214 213 213 217 215 218 216 213 214 212 201 205 201 188
145 134 111 185 203 204 211 246 248 230 330 188 172 241 183 182 115 147 196 251 23 247 121 178 127 279 234 181 205 217 242 257 268 190 248 268 277 265 272 279 275 247 246 248 257 260 251 272 299 314 297 284 269 270 265 255 237 227 224 220 219 217 232 213 218 208 209 210 214 219 216 215 214 210 216 218 220 220 216 213 213 203 207 207 200 196
102 89 101 317 316 313 309 306 10 86 179 300 282 96 139 196 175 168 160 183 176 202 171 270 263 245 22 259 235 231 263 272 316 205 193 304 356 321 298 307 313 328 308 319 309 325 316 307 320 318 285 279 279 268 256 248 254 249 239 230 224 231 237 217 216 207 207 216 222 219 216 216 212 212 217 220 220 223 217 215 215 204 211 208 198 203
154 260 140 120 19 341 346 341 321 321 135 196 187 208 176 130 130 139 105 84 192 217 177 147 231 259 270 307 293 1 334 77 238 254 162 119 348 343 351 2 339 345 344 337 326 313 324 332 310 273 269 277 282 281 280 278 275 275 272 262 242 251 251 234 215 211 217 217 226 222 219 221 212 217 219 222 220 225 219 216 215 211 216 208 208 208
179 175 147 162 192 196 211 200 212 205 192 219 222 187 192 169 172 120 216 185 221 240 161 194 244 218 347 334 3 345 6 297 271 281 316 245 17 323 343 307 304 314 295 290 305 324 296 269 274 304 316 322 304 279 280 276 274 277 278 266 252 259 258 236 207 220 219 221 226 228 224 224 217 221 220 220 223 224 220 216 211 213 219 215 215 211
173 178 192 193 199 211 217 218 56 101 102 186 224 181 196 198 187 189 145 178 214 214 159 225 233 249 249 274 306 259 332 254 271 271 207 308 277 260 244 242 240 250 274 299 304 316 332 332 331 317 303 279 278 279 275 278 281 277 274 275 264 246 249 236 211 225 223 224 227 233 230 223 222 218 219 219 221 221 220 219 215 210 217 215 220 216
85 191 220 214 220 222 218 201 179 158 177 203 196 197 193 186 190 187 192 220 202 101 244 234 228 242 256 244 242 253 250 266 264 269 263 264 284 271 282 313 349 355 338 340 353 344 335 325 323 331 333 339 335 316 299 275 262 266 268 270 276 260 245 234 216 229 227 225 232 235 236 228 223 220 220 219 219 219 220 218 216 214 213 209 221 223
153 199 224 185 235 236 229 139 167 178 187 195 200 191 185 197 187 194 215 225 179 192 227 244 197 221 248 245 231 240 223 219 228 231 223 244 252 287 318 335 340 328 338 0 347 353 353 346 337 336 340 336 337 336 325 317 302 280 270 266 273 270 251 225 218 231 227 228 234 237 235 229 221 218 219 219 220 220 221 217 216 215 211 212 221 225
143 235 214 181 220 236 232 172 186 184 206 207 203 202 197 188 196 201 214 219 206 209 229 240 240 227 237 249 228 237 217 212 233 190 219 255 265 272 311 348 343 336 353 352 350 350 352 347 347 339 335 344 347 344 341 335 325 316 300 292 284 266 255 199 227 228 229 231 236 240 234 223 217 213 213 217 220 221 218 216 215 213 216 218 220 223
158 251 181 157 200 242 241 204 190 202 189 204 224 215 205 202 204 206 211 219 213 234 245 259 266 267 253 192 223 231 195 199 134 178 227 243 252 298 35 354 310 351 357 6 10 360 354 349 347 351 353 345 343 337 334 323 315 312 303 290 292 286 262 204 236 234 235 241 243 245 239 225 222 210 216 220 222 222 217 216 212 215 221 223 219 220
176 257 51 114 185 255 241 202 191 189 216 215 222 221 219 213 216 215 216 210 187 209 224 238 254 254 256 159 227 131 153 162 197 217 230 245 28 96 141 104 50 26 19 6 355 355 352 347 344 344 335 329 324 326 331 330 323 321 312 308 300 289 268 223 236 239 242 245 256 255 247 237 228 221 228 224 226 222 219 214 213 219 222 223 222 223
175 165 164 154 210 226 244 162 141 156 154 261 247 231 218 210 214 209 216 212 207 199 207 213 235 245 233 206 219 174 172 207 208 233 255 44 89 109 104 101 76 34 19 2 349 340 333 328 324 316 315 316 321 328 325 324 324 324 320 314 302 301 265 242 241 247 252 256 251 251 244 234 227 231 233 231 231 225 217 214 219 223 223 224 224 218
173 188 198 154 215 218 223 120 142 125 208 224 228 217 183 206 197 185 213 217 223 195 213 215 235 248 203 184 211 201 177 204 173 242 114 137 125 107 96 97 81 49 336 324 306 301 300 310 309 306 293 293 301 302 305 311 314 310 310 306 310 316 289 270 269 254 264 267 259 255 251 243 234 236 236 234 230 220 218 217 223 223 223 226 221 220
187 190 211 170 211 219 126 115 142 213 230 230 169 150 192 207 191 203 219 217 215 219 240 261 261 252 215 194 204 187 124 102 94 108 67 71 99 108 122 105 77 14 326 307 303 299 298 296 299 305 323 336 339 334 340 338 341 329 327 335 328 319 310 294 285 282 276 276 275 273 261 249 240 243 242 235 229 224 225 224 230 227 225 222 221 220
178 191 155 218 146 42 115 168 224 229 238 340 249 221 174 179 189 192 244 237 219 207 210 228 238 242 226 188 208 135 133 127 95 61 71 28 99 124 118 113 66 326 333 315 314 312 320 321 319 318 314 323 329 323 324 319 324 328 320 322 320 318 315 308 302 294 292 282 280 276 266 253 251 247 245 237 229 227 231 230 229 229 225 225 228 230
184 163 179 212 183 212 197 211 227 12 325 271 258 225 155 167 151 178 230 237 218 206 208 224 236 239 239 196 148 132 134 115 86 64 260 120 344 350 130 117 153 297 255 285 282 288 292 296 304 309 307 318 324 327 333 325 326 322 320 325 323 323 316 319 303 292 287 284 285 281 273 262 256 255 247 239 234 235 236 233 233 233 223 229 228 228
174 189 196 200 217 198 213 228 235 234 244 243 233 235 182 175 178 185 205 262 226 204 208 214 227 234 223 151 143 150 144 108 154 217 226 232 215 17 330 310 316 286 298 289 314 309 318 317 316 309 324 322 328 319 323 328 331 330 328 326 325 327 319 311 294 290 290 287 286 282 278 269 259 258 254 245 240 241 242 237 239 236 217 224 227 230
16 62 153 211 205 178 215 226 223 222 233 238 246 175 187 167 161 129 183 242 237 194 199 195 223 223 188 165 149 143 143 183 209 182 202 170 194 186 52 321 296 290 286 306 319 326 324 324 311 297 309 319 346 343 342 339 340 338 335 330 328 327 322 320 314 312 306 299 291 285 279 271 262 254 253 250 247 243 244 238 235 233 222 231 232 238
186 182 140 211 217 207 212 221 229 218 248 240 223 247 231 154 118 122 211 239 223 136 167 162 205 197 168 158 148 161 169 205 188 180 165 165 184 205 171 13 351 349 340 342 326 295 286 290 325 345 355 352 335 329 346 347 349 348 342 337 336 337 334 328 323 314 306 301 297 292 287 277 270 261 253 253 252 246 243 242 243 234 225 231 228 238
192 192 195 216 215 222 221 242 270 265 262 217 219 227 133 146 144 177 217 227 116 145 145 148 141 150 153 153 161 140 232 136 130 135 147 152 98 56 347 169 216 224 298 320 319 322 332 330 329 318 312 319 328 342 346 354 353 347 339 333 336 330 321 316 312 309 307 305 303 301 295 287 270 269 263 251 254 251 249 236 235 234 226 232 232 235
200 196 218 205 223 221 219 227 233 274 232 176 250 145 168 111 213 216 225 64 146 138 159 130 139 156 143 126 128 114 143 135 115 102 95 86 128 219 307 333 342 342 323 265 274 311 315 310 318 333 347 358 356 346 349 355 351 336 333 328 322 312 307 308 307 308 310 309 308 305 301 294 285 266 265 264 256 259 253 242 231 232 228 231 230 235
181 188 187 200 198 225 202 227 217 227 241 133 126 60 221 188 225 130 128 35 72 139 135 148 135 164 134 96 95 118 116 98 102 112 112 65 69 12 347 340 334 324 327 338 344 354 353 346 347 341 332 338 347 347 328 336 327 322 321 322 315 316 315 313 309 309 308 306 305 303 300 298 290 285 273 265 254 251 257 246 233 234 226 227 231 236
169 190 184 215 178 201 201 215 211 226 148 202 164 187 191 200 168 146 129 117 118 127 141 120 157 164 158 128 129 111 110 111 85 80 62 24 334 330 333 324 299 293 310 312 318 335 356 350 345 341 333 339 345 348 355 358 342 333 329 318 319 318 313 309 306 303 302 300 298 300 300 299 297 291 281 270 263 252 252 250 233 230 222 221 226 234
210 206 175 198 166 195 210 207 222 261 213 297 112 192 123 124 125 176 123 137 145 169 153 130 144 151 135 134 124 133 124 141 154 156 142 196 223 292 320 331 340 343 345 349 346 348 4 358 340 334 326 330 340 338 337 343 332 324 322 318 326 322 321 318 316 314 307 304 301 302 299 300 296 291 286 278 266 260 251 247 226 228 223 213 225 227
1 160 77 103 259 72 45 219 343 21 84 65 41 68 114 96 42 93 125 117 105 126 145 143 146 142 148 140 127 117 122 144 136 146 139 147 157 269 318 333 343 349 349 352 351 356 353 345 338 328 321 320 329 328 323 322 319 313 308 311 316 315 313 310 311 308 305 303 304 302 304 304 299 292 288 283 271 257 253 243 228 222 221 211 224 225
285 133 73 129 208 132 228 118 45 90 68 70 100 57 60 75 103 111 99 98 120 113 103 96 122 124 133 134 121 125 124 132 117 122 125 131 133 141 147 337 332 337 339 347 338 341 348 351 345 338 330 320 324 328 326 324 317 294 296 307 308 312 312 310 302 298 296 296 299 300 299 301 301 303 300 288 281 269 263 255 241 229 224 213 217 223
282 185 77 162 148 162 259 150 161 16 33 29 34 122 116 97 79 67 83 97 97 83 83 89 94 83 87 88 114 114 110 95 103 97 107 91 101 112 119 106 342 337 342 0 340 351 346 353 344 332 327 323 322 325 324 321 317 314 310 305 308 310 310 307 307 307 306 305 304 301 304 302 300 301 300 296 285 277 273 261 242 234 225 211 209 212
177 113 202 168 119 121 38 51 114 81 23 11 24 28 64 113 113 93 88 93 98 100 90 71 65 80 81 82 87 112 108 96 81 91 92 89 49 24 11 360 358 352 348 357 357 6 6 346 337 329 324 316 319 324 326 327 326 330 332 330 329 329 328 319 315 312 307 306 307 304 304 300 298 297 296 295 291 271 257 255 256 253 253 235 211 209
108 189 177 106 122 177 185 185 158 134 209 197 171 138 113 100 110 110 101 88 96 106 106 99 79 68 68 58 64 83 92 73 48 46 50 54 40 19 2 357 350 345 349 347 346 347 346 338 329 322 316 310 317 322 323 328 327 329 332 333 336 338 336 327 318 312 307 306 303 301 306 306 304 296 291 285 287 295 290 274 268 270 266 274 265 243
171 189 147 172 181 213 180 166 173 73 64 103 140 128 109 105 113 101 83 99 89 81 107 115 111 82 64 52 40 56 63 59 36 32 28 25 13 4 0 345 338 337 337 343 345 345 343 337 335 330 330 331 331 331 334 333 329 330 334 341 342 342 335 327 319 309 304 306 306 305 304 301 298 293 286 279 275 274 280 296 292 276 281 281 286 277